contact:dominique.lefevre@mio.osupytheas.fr, maurice.libes@osupytheas.fr, didier.mallarino@osupytheas.fr
Project:EMSO http://www.emso-fr.org/EMSO-France
Depth: 2436.0 m
Title:EMSO Ligure Ouest : Data MII capteur AQUADOPP
Date,Latitude,Longitude,X_East,Y_North,Z_Up,Amplitude_X,Amplitude_Y,Amplitude_Z,Batterie,SoundSpeed,Heading,Pitch,Roll,Pressure,TIS,Speed,Direction
, degrees North, degrees East, m.s-1, m.s-1,m.s-1, 1, 1, 1, Volt, m.s-1, degree, degree, degree, dbar, degree_C, m.s-1, degree
2020-05-06T00:04:03,42.805,6.029,-0.015,0.017,-0.019,100.0,106.0,100.0,13.4,1505.3,326.1,-0.7,1.8,2470.244,13.32,0.022,318.6
2020-05-06T00:07:03,42.805,6.029,0.017,0.0,-0.007,102.0,108.0,100.0,13.4,1505.3,324.8,-0.7,1.8,2470.257,13.32,0.017,90.0
2020-05-06T00:10:03,42.805,6.029,-0.031,0.004,-0.001,101.0,109.0,100.0,13.4,1505.3,323.8,-0.8,1.8,2470.243,13.33,0.031,277.3
2020-05-06T00:13:03,42.805,6.029,0.003,0.028,0.0,101.0,111.0,100.0,13.4,1505.3,326.7,-0.7,1.8,2470.237,13.33,0.028,6.1
2020-05-06T00:16:03,42.805,6.029,0.004,0.016,-0.001,102.0,108.0,100.0,13.4,1505.3,327.2,-0.7,1.8,2470.224,13.33,0.016,14.0
2020-05-06T00:19:03,42.805,6.029,-0.013,0.002,-0.006,101.0,107.0,100.0,13.3,1505.4,323.4,-0.7,1.8,2470.2,13.34,0.013,278.7
2020-05-06T00:22:03,42.805,6.029,-0.001,0.029,-0.013,101.0,108.0,100.0,13.3,1505.4,326.6,-0.7,1.8,2470.219,13.34,0.029,358.0
2020-05-06T00:25:03,42.805,6.029,-0.043,0.026,-0.021,101.0,108.0,98.0,13.4,1505.4,328.4,-0.7,1.8,2470.24,13.34,0.05,301.2
2020-05-06T00:28:03,42.805,6.029,-0.047,0.013,-0.06,102.0,108.0,100.0,13.4,1505.4,323.8,-0.7,1.9,2470.245,13.34,0.048,285.5
2020-05-06T00:31:03,42.805,6.029,0.0,0.0,-0.008,100.0,108.0,101.0,13.4,1505.4,326.0,-0.8,1.8,2470.25,13.34,0.0,0.0
2020-05-06T00:34:03,42.805,6.029,0.002,0.0,-0.012,101.0,108.0,99.0,13.4,1505.4,324.1,-0.7,1.8,2470.169,13.34,0.002,90.0
2020-05-06T00:37:03,42.805,6.029,-0.001,0.008,-0.027,101.0,108.0,99.0,13.4,1505.4,327.9,-0.7,1.8,2470.204,13.34,0.008,352.9
2020-05-06T00:40:03,42.805,6.029,-0.018,0.006,-0.022,102.0,107.0,99.0,13.3,1505.4,323.7,-0.7,1.8,2470.224,13.34,0.018,288.4
2020-05-06T00:43:03,42.805,6.029,-0.013,0.003,-0.033,102.0,107.0,100.0,13.3,1505.4,323.7,-0.7,1.8,2470.143,13.34,0.013,283.0
2020-05-06T00:46:03,42.805,6.029,-0.022,0.008,-0.009,104.0,108.0,100.0,13.4,1505.4,325.0,-0.7,1.8,2470.196,13.34,0.023,290.0
2020-05-06T00:49:03,42.805,6.029,-0.012,0.025,-0.006,102.0,108.0,100.0,13.3,1505.4,328.4,-0.8,1.9,2470.197,13.34,0.027,334.4
2020-05-06T00:52:03,42.805,6.029,-0.021,0.001,-0.042,100.0,108.0,100.0,13.4,1505.4,325.3,-0.7,1.8,2470.202,13.34,0.021,272.7
2020-05-06T00:55:03,42.805,6.029,-0.008,0.001,0.005,102.0,105.0,99.0,13.4,1505.4,326.6,-0.7,1.8,2470.243,13.34,0.008,277.1
2020-05-06T00:58:03,42.805,6.029,-0.016,0.012,-0.028,102.0,106.0,99.0,13.4,1505.4,325.2,-0.7,1.8,2470.229,13.34,0.02,306.9
2020-05-06T01:04:03,42.805,6.029,-0.013,-0.004,-0.035,103.0,108.0,101.0,13.3,1505.3,325.6,-0.7,1.8,2470.227,13.32,0.013,252.9
2020-05-06T01:07:03,42.805,6.029,0.002,0.0,-0.012,102.0,107.0,99.0,13.4,1505.3,325.5,-0.7,1.8,2470.247,13.33,0.002,90.0
2020-05-06T01:10:03,42.805,6.029,-0.016,-0.005,-0.02,103.0,106.0,99.0,13.3,1505.3,324.9,-0.7,1.8,2470.239,13.33,0.016,252.6
2020-05-06T01:13:04,42.805,6.029,0.008,0.001,-0.01,101.0,107.0,101.0,13.4,1505.3,325.8,-0.7,1.8,2470.198,13.33,0.008,82.9
2020-05-06T01:16:03,42.805,6.029,0.024,0.016,-0.021,101.0,105.0,100.0,13.4,1505.3,325.4,-0.7,1.8,2470.197,13.33,0.028,56.3
2020-05-06T01:19:03,42.805,6.029,0.027,0.005,0.003,102.0,106.0,101.0,13.4,1505.3,328.4,-0.7,1.8,2470.224,13.33,0.027,79.5
2020-05-06T01:22:03,42.805,6.029,0.025,0.003,0.0,101.0,106.0,99.0,13.4,1505.4,326.4,-0.7,1.9,2470.228,13.34,0.025,83.2
2020-05-06T01:25:03,42.805,6.029,0.016,0.024,-0.003,102.0,106.0,100.0,13.4,1505.4,328.2,-0.7,1.9,2470.205,13.34,0.028,33.7
2020-05-06T01:28:03,42.805,6.029,-0.012,-0.005,-0.041,101.0,106.0,102.0,13.4,1505.4,327.9,-0.7,1.9,2470.234,13.34,0.013,247.4
2020-05-06T01:31:03,42.805,6.029,-0.024,-0.001,-0.05,101.0,107.0,100.0,13.4,1505.4,325.6,-0.7,1.8,2470.219,13.34,0.024,267.6
2020-05-06T01:34:03,42.805,6.029,-0.031,-0.001,-0.049,101.0,106.0,99.0,13.4,1505.4,326.8,-0.7,1.9,2470.216,13.34,0.031,268.2
2020-05-06T01:37:03,42.805,6.029,-0.027,0.023,-0.039,100.0,106.0,100.0,13.4,1505.4,326.3,-0.7,1.8,2470.188,13.34,0.035,310.4
2020-05-06T01:40:03,42.805,6.029,-0.015,0.004,-0.057,100.0,107.0,100.0,13.3,1505.4,328.3,-0.7,1.8,2470.238,13.34,0.015,284.9
2020-05-06T01:43:03,42.805,6.029,-0.017,0.004,-0.015,102.0,106.0,100.0,13.4,1505.4,324.6,-0.7,1.8,2470.22,13.34,0.017,283.2
2020-05-06T01:46:03,42.805,6.029,0.006,0.016,0.002,102.0,106.0,100.0,13.3,1505.4,324.4,-0.7,1.8,2470.22,13.34,0.017,20.6
2020-05-06T01:49:03,42.805,6.029,-0.023,-0.006,-0.032,101.0,107.0,100.0,13.4,1505.4,324.1,-0.7,1.8,2470.236,13.34,0.023,255.4
2020-05-06T01:52:03,42.805,6.029,0.007,-0.009,-0.035,103.0,107.0,99.0,13.4,1505.4,328.2,-0.7,1.8,2470.237,13.34,0.011,142.1
2020-05-06T01:55:03,42.805,6.029,-0.002,-0.007,-0.049,103.0,106.0,100.0,13.4,1505.4,325.9,-0.7,1.8,2470.246,13.34,0.007,195.9
2020-05-06T01:58:03,42.805,6.029,0.011,-0.013,-0.038,101.0,105.0,99.0,13.3,1505.4,325.1,-0.7,1.8,2470.215,13.34,0.017,139.8
2020-05-06T02:04:03,42.805,6.029,-0.013,0.017,-0.045,101.0,105.0,99.0,13.4,1505.3,327.5,-0.7,1.8,2470.261,13.32,0.021,322.6
2020-05-06T02:07:03,42.805,6.029,-0.023,0.004,-0.027,101.0,106.0,101.0,13.3,1505.3,324.0,-0.7,1.9,2470.239,13.32,0.023,279.9
2020-05-06T02:10:03,42.805,6.029,-0.005,-0.004,-0.035,101.0,107.0,99.0,13.4,1505.3,323.5,-0.7,1.9,2470.271,13.33,0.006,231.3
2020-05-06T02:13:03,42.805,6.029,-0.007,-0.021,-0.065,101.0,106.0,99.0,13.4,1505.3,326.5,-0.7,1.8,2470.247,13.33,0.022,198.4
2020-05-06T02:16:03,42.805,6.029,0.005,-0.001,-0.048,102.0,107.0,100.0,13.3,1505.3,324.6,-0.7,1.8,2470.309,13.33,0.005,101.3
2020-05-06T02:19:03,42.805,6.029,-0.023,-0.011,-0.05,103.0,105.0,101.0,13.3,1505.4,325.7,-0.7,1.8,2470.249,13.34,0.025,244.4
2020-05-06T02:22:03,42.805,6.029,0.004,-0.022,-0.015,103.0,106.0,100.0,13.4,1505.4,327.7,-0.7,1.9,2470.282,13.34,0.022,169.7
2020-05-06T02:25:03,42.805,6.029,-0.027,-0.003,-0.038,102.0,106.0,99.0,13.4,1505.4,326.8,-0.7,1.8,2470.285,13.34,0.027,263.7
2020-05-06T02:28:03,42.805,6.029,-0.011,-0.014,-0.047,101.0,105.0,100.0,13.3,1505.4,327.4,-0.7,1.8,2470.264,13.34,0.017,218.2
2020-05-06T02:31:03,42.805,6.029,0.016,0.0,-0.014,102.0,104.0,99.0,13.3,1505.3,327.1,-0.7,1.8,2470.286,13.33,0.016,90.0
2020-05-06T02:34:03,42.805,6.029,-0.021,0.019,-0.039,100.0,106.0,99.0,13.4,1505.3,327.8,-0.7,1.8,2470.281,13.33,0.028,312.1
2020-05-06T02:37:03,42.805,6.029,-0.028,-0.012,-0.094,100.0,105.0,100.0,13.4,1505.3,324.4,-0.7,1.8,2470.283,13.33,0.03,246.8
2020-05-06T02:40:03,42.805,6.029,-0.013,0.007,-0.02,100.0,105.0,100.0,13.4,1505.4,324.4,-0.8,1.8,2470.292,13.34,0.014,298.3
2020-05-06T02:43:03,42.805,6.029,-0.009,0.02,-0.051,103.0,106.0,100.0,13.4,1505.4,323.4,-0.7,1.8,2470.27,13.34,0.021,335.8
2020-05-06T02:46:03,42.805,6.029,0.002,0.001,-0.029,102.0,107.0,100.0,13.4,1505.4,326.5,-0.7,1.8,2470.296,13.34,0.002,63.4
2020-05-06T02:49:03,42.805,6.029,-0.036,0.003,-0.019,101.0,106.0,101.0,13.4,1505.3,327.7,-0.7,1.8,2470.279,13.33,0.036,274.8
2020-05-06T02:52:03,42.805,6.029,-0.015,-0.014,-0.029,102.0,106.0,101.0,13.4,1505.3,323.3,-0.7,1.8,2470.325,13.33,0.02,227.0
2020-05-06T02:55:03,42.805,6.029,-0.007,-0.01,-0.021,102.0,105.0,100.0,13.4,1505.3,325.3,-0.7,1.8,2470.298,13.33,0.012,215.0
2020-05-06T02:58:03,42.805,6.029,0.001,0.02,-0.012,101.0,105.0,101.0,13.4,1505.4,324.6,-0.7,1.8,2470.294,13.34,0.02,2.9
2020-05-06T03:04:03,42.805,6.029,-0.007,-0.01,-0.027,102.0,105.0,102.0,13.3,1505.3,328.2,-0.7,1.8,2470.366,13.32,0.012,215.0
2020-05-06T03:07:03,42.805,6.029,-0.003,-0.001,-0.021,102.0,106.0,100.0,13.3,1505.3,328.1,-0.7,1.8,2470.354,13.32,0.003,251.6
2020-05-06T03:10:03,42.805,6.029,-0.04,0.012,-0.047,101.0,105.0,99.0,13.3,1505.3,328.1,-0.7,1.8,2470.324,13.33,0.041,286.7
2020-05-06T03:13:03,42.805,6.029,0.0,0.011,-0.03,101.0,105.0,99.0,13.4,1505.3,325.1,-0.7,1.8,2470.36,13.33,0.011,0.0
2020-05-06T03:16:03,42.805,6.029,-0.006,0.006,-0.042,101.0,107.0,99.0,13.4,1505.3,323.3,-0.7,1.8,2470.308,13.33,0.008,315.0
2020-05-06T03:19:03,42.805,6.029,0.001,0.017,-0.023,102.0,107.0,100.0,13.4,1505.3,326.6,-0.7,1.8,2470.36,13.33,0.017,3.4
2020-05-06T03:22:03,42.805,6.029,-0.038,0.008,-0.027,100.0,105.0,99.0,13.3,1505.4,328.1,-0.7,1.9,2470.375,13.34,0.038,281.9
2020-05-06T03:25:03,42.805,6.029,-0.01,0.012,-0.057,101.0,106.0,99.0,13.4,1505.4,324.4,-0.7,1.8,2470.374,13.34,0.015,320.2
2020-05-06T03:28:03,42.805,6.029,0.0,-0.018,-0.066,101.0,106.0,99.0,13.3,1505.4,324.8,-0.7,1.8,2470.342,13.34,0.018,180.0
2020-05-06T03:31:03,42.805,6.029,0.007,0.0,-0.037,102.0,104.0,100.0,13.4,1505.4,324.8,-0.7,1.8,2470.34,13.34,0.007,90.0
2020-05-06T03:34:03,42.805,6.029,0.014,0.014,-0.005,101.0,107.0,99.0,13.4,1505.4,322.8,-0.7,1.8,2470.313,13.34,0.019,45.0
2020-05-06T03:37:03,42.805,6.029,-0.016,0.012,-0.023,101.0,106.0,99.0,13.4,1505.4,324.8,-0.7,1.8,2470.355,13.34,0.02,306.9
2020-05-06T03:40:03,42.805,6.029,-0.044,0.007,-0.008,102.0,105.0,100.0,13.4,1505.4,323.4,-0.7,1.8,2470.332,13.34,0.044,279.0
2020-05-06T03:43:03,42.805,6.029,-0.007,-0.01,-0.03,102.0,105.0,101.0,13.4,1505.4,326.1,-0.7,1.8,2470.374,13.34,0.012,215.0
2020-05-06T03:46:03,42.805,6.029,-0.006,0.015,-0.044,101.0,107.0,99.0,13.4,1505.4,326.6,-0.7,1.8,2470.384,13.34,0.016,338.2
2020-05-06T03:49:03,42.805,6.029,-0.02,-0.011,-0.037,103.0,106.0,101.0,13.3,1505.4,328.2,-0.7,1.8,2470.339,13.34,0.022,241.2
2020-05-06T03:52:03,42.805,6.029,0.037,0.004,-0.006,101.0,107.0,101.0,13.3,1505.4,326.1,-0.7,1.8,2470.35,13.34,0.037,83.8
2020-05-06T03:55:03,42.805,6.029,-0.024,0.016,-0.047,101.0,106.0,99.0,13.4,1505.4,325.7,-0.7,1.8,2470.356,13.34,0.028,303.7
2020-05-06T03:58:03,42.805,6.029,-0.008,0.013,0.006,102.0,106.0,99.0,13.4,1505.4,324.9,-0.7,1.8,2470.391,13.34,0.015,328.4
2020-05-06T04:04:03,42.805,6.029,-0.021,0.0,-0.039,102.0,106.0,100.0,13.4,1505.3,324.9,-0.7,1.8,2470.398,13.32,0.021,270.0
2020-05-06T04:07:03,42.805,6.029,0.0,0.005,0.005,101.0,105.0,101.0,13.4,1505.3,323.2,-0.8,1.8,2470.419,13.33,0.005,0.0
2020-05-06T04:10:03,42.805,6.029,-0.009,0.014,-0.041,103.0,105.0,100.0,13.4,1505.3,324.7,-0.7,1.8,2470.407,13.33,0.016,327.3
2020-05-06T04:13:03,42.805,6.029,0.0,0.015,-0.035,103.0,106.0,100.0,13.4,1505.3,326.7,-0.7,1.8,2470.405,13.33,0.015,0.0
2020-05-06T04:16:03,42.805,6.029,0.006,0.017,0.006,103.0,105.0,100.0,13.4,1505.3,323.3,-0.7,1.8,2470.376,13.33,0.018,19.4
2020-05-06T04:19:03,42.805,6.029,-0.004,-0.01,-0.033,102.0,106.0,100.0,13.4,1505.3,327.5,-0.7,1.8,2470.389,13.33,0.01,201.8
2020-05-06T04:22:03,42.805,6.029,-0.009,0.005,-0.014,102.0,107.0,100.0,13.3,1505.4,324.8,-0.7,1.8,2470.411,13.34,0.01,299.1
2020-05-06T04:25:03,42.805,6.029,-0.02,0.016,-0.032,104.0,104.0,99.0,13.4,1505.4,326.3,-0.7,1.8,2470.375,13.34,0.025,308.7
2020-05-06T04:28:03,42.805,6.029,0.007,0.019,-0.014,102.0,106.0,99.0,13.3,1505.4,323.7,-0.7,1.8,2470.391,13.34,0.02,20.2
2020-05-06T04:31:03,42.805,6.029,-0.007,0.017,-0.028,103.0,106.0,100.0,13.4,1505.4,327.8,-0.8,1.8,2470.348,13.34,0.018,337.6
2020-05-06T04:34:03,42.805,6.029,-0.003,-0.006,-0.027,102.0,105.0,100.0,13.3,1505.4,324.6,-0.7,1.8,2470.418,13.34,0.006,206.6
2020-05-06T04:37:03,42.805,6.029,0.02,-0.004,-0.011,101.0,105.0,100.0,13.4,1505.4,323.6,-0.7,1.8,2470.36,13.34,0.02,101.3
2020-05-06T04:40:03,42.805,6.029,-0.025,0.007,-0.038,102.0,106.0,99.0,13.3,1505.4,325.1,-0.7,1.9,2470.385,13.34,0.025,285.6
2020-05-06T04:43:03,42.805,6.029,0.014,-0.003,0.004,101.0,106.0,100.0,13.4,1505.4,326.5,-0.7,1.8,2470.43,13.34,0.014,102.1
2020-05-06T04:46:03,42.805,6.029,-0.007,0.0,-0.009,103.0,106.0,101.0,13.3,1505.4,324.7,-0.7,1.8,2470.427,13.34,0.007,270.0
2020-05-06T04:49:03,42.805,6.029,-0.018,0.012,-0.019,101.0,106.0,100.0,13.4,1505.4,327.5,-0.7,1.8,2470.383,13.34,0.021,303.7
2020-05-06T04:52:03,42.805,6.029,0.015,0.0,-0.031,102.0,107.0,100.0,13.4,1505.4,327.4,-0.7,1.8,2470.396,13.34,0.015,90.0
2020-05-06T04:55:03,42.805,6.029,-0.024,0.012,-0.022,102.0,107.0,100.0,13.4,1505.4,326.5,-0.7,1.9,2470.39,13.34,0.026,296.6
2020-05-06T04:58:03,42.805,6.029,-0.036,0.019,-0.061,102.0,107.0,100.0,13.3,1505.4,326.5,-0.7,1.8,2470.376,13.34,0.04,297.8
2020-05-06T05:04:03,42.805,6.029,-0.044,0.009,-0.056,102.0,108.0,100.0,13.4,1505.3,326.5,-0.8,1.9,2470.43,13.32,0.044,281.6
2020-05-06T05:07:03,42.805,6.029,-0.016,0.009,-0.027,102.0,109.0,101.0,13.4,1505.3,324.7,-0.7,1.8,2470.481,13.32,0.018,299.4
2020-05-06T05:10:03,42.805,6.029,-0.045,-0.002,-0.039,103.0,107.0,99.0,13.4,1505.3,323.5,-0.7,1.8,2470.444,13.33,0.045,267.5
2020-05-06T05:13:03,42.805,6.029,0.002,0.007,-0.027,102.0,107.0,100.0,13.4,1505.3,326.5,-0.7,1.8,2470.486,13.33,0.007,15.9
2020-05-06T05:16:03,42.805,6.029,-0.021,-0.002,-0.033,102.0,105.0,100.0,13.4,1505.3,324.0,-0.7,1.8,2470.463,13.33,0.021,264.6
2020-05-06T05:19:03,42.805,6.029,0.048,0.018,0.015,101.0,106.0,100.0,13.4,1505.3,328.0,-0.7,1.8,2470.429,13.33,0.051,69.4
2020-05-06T05:22:03,42.805,6.029,0.0,0.025,0.005,100.0,106.0,101.0,13.3,1505.3,324.7,-0.7,1.8,2470.438,13.33,0.025,0.0
2020-05-06T05:25:03,42.805,6.029,-0.017,-0.013,-0.046,101.0,106.0,99.0,13.4,1505.3,323.5,-0.7,1.8,2470.442,13.33,0.021,232.6
2020-05-06T05:28:03,42.805,6.029,-0.003,0.017,0.006,102.0,107.0,99.0,13.4,1505.3,328.0,-0.8,1.8,2470.451,13.33,0.017,350.0
2020-05-06T05:31:03,42.805,6.029,-0.021,0.025,-0.038,102.0,105.0,99.0,13.3,1505.3,326.0,-0.7,1.8,2470.43,13.33,0.032,320.0
2020-05-06T05:34:03,42.805,6.029,-0.053,0.01,-0.08,101.0,105.0,99.0,13.4,1505.3,325.6,-0.7,1.8,2470.429,13.33,0.053,280.7
2020-05-06T05:37:03,42.805,6.029,-0.016,0.007,-0.065,102.0,107.0,99.0,13.4,1505.3,324.5,-0.7,1.8,2470.402,13.33,0.017,293.6
2020-05-06T05:40:03,42.805,6.029,-0.046,-0.005,-0.068,101.0,107.0,100.0,13.3,1505.3,324.4,-0.7,1.8,2470.415,13.33,0.046,263.8
2020-05-06T05:43:03,42.805,6.029,-0.012,0.005,-0.032,100.0,107.0,100.0,13.4,1505.4,327.5,-0.7,1.8,2470.408,13.34,0.013,292.6
2020-05-06T05:46:03,42.805,6.029,-0.011,0.018,-0.017,102.0,107.0,99.0,13.4,1505.4,326.9,-0.7,1.8,2470.434,13.34,0.021,328.6
2020-05-06T05:49:03,42.805,6.029,-0.031,0.001,-0.068,101.0,108.0,100.0,13.4,1505.4,327.4,-0.7,1.8,2470.488,13.34,0.031,271.8
2020-05-06T05:52:03,42.805,6.029,-0.09,0.017,-0.063,100.0,106.0,99.0,13.4,1505.4,324.2,-0.7,1.8,2470.447,13.34,0.091,280.7
2020-05-06T05:55:03,42.805,6.029,-0.041,-0.004,-0.061,102.0,106.0,99.0,13.4,1505.4,324.9,-0.7,1.8,2470.4,13.34,0.041,264.4
2020-05-06T05:58:03,42.805,6.029,-0.032,0.006,-0.039,102.0,106.0,100.0,13.4,1505.4,328.0,-0.7,1.8,2470.417,13.34,0.032,280.6
2020-05-06T06:04:03,42.805,6.029,0.004,0.014,-0.003,102.0,107.0,98.0,13.4,1505.3,323.1,-0.7,1.8,2470.508,13.31,0.014,15.9
2020-05-06T06:07:03,42.805,6.029,0.016,0.021,0.02,101.0,107.0,99.0,13.4,1505.3,328.1,-0.7,1.8,2470.452,13.32,0.026,37.3
2020-05-06T06:10:03,42.805,6.029,-0.004,0.014,-0.021,103.0,105.0,99.0,13.4,1505.3,326.9,-0.7,1.8,2470.417,13.33,0.014,344.1
2020-05-06T06:13:03,42.805,6.029,-0.048,-0.001,-0.091,101.0,106.0,99.0,13.3,1505.3,325.1,-0.7,1.8,2470.435,13.33,0.048,268.8
2020-05-06T06:16:03,42.805,6.029,-0.012,0.016,-0.031,102.0,105.0,100.0,13.3,1505.3,324.8,-0.7,1.8,2470.418,13.33,0.02,323.1
2020-05-06T06:19:03,42.805,6.029,-0.023,0.002,-0.013,101.0,107.0,100.0,13.4,1505.3,326.4,-0.7,1.8,2470.496,13.33,0.023,275.0
2020-05-06T06:22:03,42.805,6.029,-0.021,-0.001,-0.027,101.0,106.0,100.0,13.4,1505.3,324.6,-0.6,1.8,2470.459,13.33,0.021,267.3
2020-05-06T06:25:03,42.805,6.029,0.026,0.03,0.04,101.0,105.0,100.0,13.4,1505.3,322.7,-0.7,1.8,2470.436,13.33,0.039,40.9
2020-05-06T06:28:03,42.805,6.029,0.047,-0.005,0.05,101.0,105.0,100.0,13.3,1505.3,328.4,-0.7,1.8,2470.368,13.33,0.047,96.1
2020-05-06T06:31:03,42.805,6.029,0.0,0.004,-0.029,101.0,106.0,100.0,13.4,1505.3,327.7,-0.7,1.9,2470.424,13.33,0.004,0.0
2020-05-06T06:34:03,42.805,6.029,-0.027,0.011,-0.001,101.0,107.0,100.0,13.3,1505.3,325.1,-0.7,1.9,2470.44,13.33,0.029,292.2
2020-05-06T06:37:03,42.805,6.029,-0.031,-0.001,-0.08,101.0,105.0,100.0,13.3,1505.3,326.8,-0.7,1.8,2470.447,13.33,0.031,268.2
2020-05-06T06:40:03,42.805,6.029,-0.038,-0.019,-0.047,101.0,106.0,99.0,13.3,1505.3,326.5,-0.7,1.8,2470.441,13.33,0.042,243.4
2020-05-06T06:43:03,42.805,6.029,-0.052,0.013,-0.058,102.0,106.0,101.0,13.4,1505.3,323.4,-0.7,1.8,2470.454,13.33,0.053,284.0
2020-05-06T06:46:03,42.805,6.029,-0.057,-0.012,-0.045,101.0,106.0,100.0,13.4,1505.3,326.0,-0.7,1.8,2470.4,13.33,0.058,258.1
2020-05-06T06:49:03,42.805,6.029,-0.004,0.01,-0.039,103.0,105.0,100.0,13.4,1505.3,327.7,-0.7,1.9,2470.425,13.33,0.01,338.2
2020-05-06T06:52:03,42.805,6.029,0.004,-0.006,-0.027,103.0,105.0,100.0,13.4,1505.3,324.8,-0.7,1.8,2470.462,13.33,0.007,146.3
2020-05-06T06:55:03,42.805,6.029,-0.01,-0.009,-0.029,102.0,103.0,100.0,13.3,1505.3,325.3,-0.7,1.8,2470.429,13.33,0.013,228.0
2020-05-06T06:58:03,42.805,6.029,-0.004,-0.007,-0.026,101.0,104.0,100.0,13.4,1505.3,323.3,-0.7,1.8,2470.456,13.33,0.008,209.7
2020-05-06T07:04:03,42.805,6.029,-0.018,0.023,0.002,101.0,104.0,100.0,13.4,1505.3,327.7,-0.7,1.8,2470.433,13.31,0.029,322.0
2020-05-06T07:07:03,42.805,6.029,-0.065,0.001,-0.05,101.0,104.0,101.0,13.4,1505.3,324.1,-0.8,1.8,2470.416,13.31,0.065,270.9
2020-05-06T07:10:03,42.805,6.029,-0.046,0.012,-0.072,101.0,104.0,99.0,13.3,1505.3,325.4,-0.7,1.8,2470.437,13.32,0.047,284.6
2020-05-06T07:13:03,42.805,6.029,-0.045,-0.003,-0.069,102.0,104.0,101.0,13.4,1505.3,326.6,-0.7,1.8,2470.429,13.32,0.045,266.2
2020-05-06T07:16:03,42.805,6.029,0.005,-0.004,0.005,100.0,105.0,100.0,13.4,1505.3,326.6,-0.7,1.8,2470.448,13.32,0.006,128.7
2020-05-06T07:19:03,42.805,6.029,-0.017,0.0,0.019,101.0,104.0,99.0,13.4,1505.3,326.4,-0.7,1.8,2470.43,13.33,0.017,270.0
2020-05-06T07:22:03,42.805,6.029,-0.004,-0.002,-0.023,102.0,106.0,99.0,13.4,1505.3,324.4,-0.7,1.8,2470.427,13.33,0.004,243.4
2020-05-06T07:25:03,42.805,6.029,-0.015,0.0,-0.017,102.0,105.0,100.0,13.4,1505.3,325.4,-0.7,1.8,2470.476,13.33,0.015,270.0
2020-05-06T07:28:03,42.805,6.029,-0.015,0.005,-0.043,101.0,104.0,100.0,13.4,1505.3,326.5,-0.7,1.8,2470.433,13.33,0.015,288.4
2020-05-06T07:31:03,42.805,6.029,-0.035,-0.002,-0.06,102.0,106.0,101.0,13.3,1505.3,323.6,-0.7,1.8,2470.41,13.33,0.035,266.7
2020-05-06T07:34:03,42.805,6.029,-0.029,0.01,-0.009,101.0,105.0,100.0,13.4,1505.3,326.6,-0.7,1.8,2470.403,13.33,0.03,289.0
2020-05-06T07:37:03,42.805,6.029,-0.031,0.013,-0.022,100.0,104.0,100.0,13.3,1505.3,327.9,-0.7,1.8,2470.411,13.33,0.033,292.7
2020-05-06T07:40:03,42.805,6.029,-0.012,-0.01,-0.013,101.0,105.0,100.0,13.4,1505.3,327.6,-0.7,1.8,2470.441,13.33,0.015,230.2
2020-05-06T07:43:03,42.805,6.029,-0.002,0.025,-0.003,101.0,105.0,100.0,13.4,1505.3,322.8,-0.7,1.8,2470.44,13.33,0.025,355.4
2020-05-06T07:46:03,42.805,6.029,-0.032,0.008,-0.002,102.0,106.0,100.0,13.4,1505.3,328.2,-0.7,1.8,2470.395,13.33,0.032,284.0
2020-05-06T07:49:03,42.805,6.029,0.011,0.016,0.007,103.0,106.0,98.0,13.4,1505.3,324.6,-0.7,1.8,2470.452,13.33,0.019,34.5
2020-05-06T07:52:03,42.805,6.029,-0.012,0.023,-0.019,101.0,106.0,100.0,13.4,1505.3,325.7,-0.7,1.8,2470.428,13.33,0.025,332.4
2020-05-06T07:55:03,42.805,6.029,-0.009,0.011,-0.006,101.0,105.0,102.0,13.4,1505.3,323.4,-0.7,1.8,2470.371,13.33,0.014,320.7
2020-05-06T07:58:03,42.805,6.029,0.034,0.008,0.006,101.0,106.0,99.0,13.4,1505.3,327.3,-0.7,1.9,2470.354,13.33,0.034,76.8
2020-05-06T08:04:03,42.805,6.029,-0.029,-0.002,-0.055,100.0,104.0,99.0,13.4,1505.3,326.5,-0.7,1.8,2470.44,13.31,0.029,266.1
2020-05-06T08:07:03,42.805,6.029,-0.035,0.02,-0.04,101.0,104.0,100.0,13.4,1505.3,328.0,-0.7,1.8,2470.418,13.32,0.04,299.7
2020-05-06T08:10:03,42.805,6.029,-0.007,-0.004,-0.014,101.0,105.0,99.0,13.4,1505.3,327.0,-0.7,1.8,2470.409,13.32,0.008,240.3
2020-05-06T08:13:03,42.805,6.029,0.004,-0.002,-0.001,100.0,105.0,98.0,13.3,1505.3,327.7,-0.7,1.8,2470.393,13.32,0.004,116.6
2020-05-06T08:16:03,42.805,6.029,-0.006,0.007,-0.023,102.0,104.0,99.0,13.4,1505.3,326.6,-0.7,1.8,2470.384,13.32,0.009,319.4
2020-05-06T08:19:03,42.805,6.029,-0.031,0.009,-0.004,101.0,105.0,101.0,13.3,1505.3,328.0,-0.7,1.8,2470.422,13.32,0.032,286.2
2020-05-06T08:22:03,42.805,6.029,-0.005,-0.01,-0.017,102.0,104.0,100.0,13.3,1505.3,326.1,-0.7,1.9,2470.396,13.33,0.011,206.6
2020-05-06T08:25:03,42.805,6.029,-0.009,-0.014,-0.012,102.0,104.0,100.0,13.4,1505.3,327.9,-0.7,1.8,2470.351,13.33,0.016,212.7
2020-05-06T08:28:03,42.805,6.029,-0.041,-0.007,-0.041,101.0,104.0,100.0,13.4,1505.3,325.3,-0.7,1.8,2470.395,13.33,0.041,260.3
2020-05-06T08:31:03,42.805,6.029,-0.032,0.003,-0.003,101.0,104.0,100.0,13.3,1505.3,325.5,-0.7,1.8,2470.393,13.32,0.032,275.4
2020-05-06T08:34:03,42.805,6.029,-0.046,-0.007,-0.075,101.0,104.0,100.0,13.4,1505.3,325.0,-0.7,1.8,2470.407,13.32,0.046,261.3
2020-05-06T08:37:03,42.805,6.029,-0.018,-0.014,-0.013,101.0,102.0,100.0,13.4,1505.3,324.1,-0.7,1.9,2470.351,13.32,0.022,232.1
2020-05-06T08:40:03,42.805,6.029,-0.026,0.0,-0.054,102.0,104.0,99.0,13.4,1505.3,324.9,-0.7,1.9,2470.369,13.32,0.026,270.0
2020-05-06T08:43:03,42.805,6.029,-0.038,0.014,-0.025,102.0,107.0,100.0,13.3,1505.3,326.5,-0.7,1.9,2470.345,13.32,0.04,290.2
2020-05-06T08:46:03,42.805,6.029,-0.055,-0.005,-0.037,101.0,105.0,101.0,13.3,1505.3,327.1,-0.7,1.8,2470.369,13.32,0.055,264.8
2020-05-06T08:49:03,42.805,6.029,-0.012,0.0,-0.021,101.0,104.0,99.0,13.4,1505.3,326.5,-0.7,1.8,2470.348,13.32,0.012,270.0
2020-05-06T08:52:03,42.805,6.029,-0.011,-0.018,-0.038,101.0,105.0,100.0,13.4,1505.3,325.7,-0.7,1.8,2470.371,13.32,0.021,211.4
2020-05-06T08:55:03,42.805,6.029,-0.016,-0.002,-0.028,102.0,105.0,100.0,13.3,1505.3,324.3,-0.7,1.8,2470.36,13.32,0.016,262.9
2020-05-06T08:58:03,42.805,6.029,-0.034,0.007,-0.042,102.0,104.0,98.0,13.4,1505.3,326.0,-0.7,1.8,2470.319,13.32,0.034,281.6
2020-05-06T09:04:03,42.805,6.029,-0.036,-0.009,-0.029,101.0,105.0,100.0,13.4,1505.3,323.6,-0.8,1.8,2470.353,13.31,0.037,256.0
2020-05-06T09:07:03,42.805,6.029,-0.018,-0.001,-0.04,101.0,104.0,99.0,13.4,1505.3,326.4,-0.7,1.8,2470.351,13.31,0.018,266.8
2020-05-06T09:10:03,42.805,6.029,-0.028,0.013,-0.077,102.0,104.0,100.0,13.3,1505.3,326.6,-0.7,1.8,2470.348,13.32,0.03,294.9
2020-05-06T09:13:03,42.805,6.029,-0.033,0.003,-0.017,100.0,104.0,101.0,13.4,1505.3,325.4,-0.7,1.8,2470.35,13.32,0.033,275.2
2020-05-06T09:16:03,42.805,6.029,-0.053,-0.003,-0.071,101.0,103.0,100.0,13.4,1505.3,326.5,-0.7,1.8,2470.341,13.32,0.053,266.8
2020-05-06T09:19:03,42.805,6.029,-0.09,-0.017,-0.092,103.0,102.0,100.0,13.4,1505.3,327.2,-0.7,1.8,2470.318,13.32,0.091,259.3
2020-05-06T09:22:03,42.805,6.029,-0.01,-0.008,-0.003,101.0,105.0,100.0,13.4,1505.3,325.8,-0.7,1.8,2470.344,13.32,0.012,231.3
2020-05-06T09:25:03,42.805,6.029,-0.026,0.011,-0.032,101.0,104.0,100.0,13.4,1505.3,323.0,-0.7,1.9,2470.331,13.32,0.028,292.9
2020-05-06T09:28:03,42.805,6.029,-0.03,0.006,-0.035,100.0,104.0,100.0,13.3,1505.3,325.9,-0.7,1.8,2470.329,13.32,0.03,281.3
2020-05-06T09:31:03,42.805,6.029,-0.011,0.01,-0.028,102.0,104.0,101.0,13.4,1505.3,326.1,-0.7,1.8,2470.361,13.32,0.014,312.3
2020-05-06T09:34:03,42.805,6.029,-0.039,0.012,-0.034,100.0,104.0,99.0,13.4,1505.3,327.2,-0.7,1.8,2470.328,13.32,0.04,287.1
2020-05-06T09:37:03,42.805,6.029,-0.024,-0.007,-0.002,102.0,104.0,100.0,13.3,1505.3,324.5,-0.7,1.8,2470.288,13.32,0.025,253.7
2020-05-06T09:40:03,42.805,6.029,-0.033,-0.013,-0.031,101.0,103.0,100.0,13.4,1505.3,326.9,-0.7,1.8,2470.289,13.32,0.035,248.5
2020-05-06T09:43:03,42.805,6.029,-0.026,-0.005,-0.028,102.0,104.0,100.0,13.4,1505.3,326.5,-0.7,1.8,2470.276,13.32,0.026,259.1
2020-05-06T09:46:03,42.805,6.029,-0.028,-0.007,-0.028,102.0,105.0,100.0,13.4,1505.3,324.3,-0.7,1.8,2470.314,13.32,0.028,256.0
2020-05-06T09:49:03,42.805,6.029,-0.028,0.017,0.015,101.0,106.0,99.0,13.4,1505.3,323.2,-0.7,1.8,2470.269,13.32,0.032,301.3
2020-05-06T09:52:03,42.805,6.029,-0.02,0.006,-0.023,103.0,105.0,100.0,13.3,1505.3,325.0,-0.7,1.8,2470.272,13.32,0.02,286.7
2020-05-06T09:55:03,42.805,6.029,-0.024,0.02,-0.017,101.0,104.0,100.0,13.3,1505.3,326.1,-0.7,1.8,2470.307,13.32,0.031,309.8